星链-31728 (STARLINK-31728 )

导读

STARLINK-31728是美国太空探索技术公司 SpaceX 星链互联网卫星星座的一员,于2024年4月13日发射入轨,属于星链项目批量部署的卫星之一。星链旨在为全球提供低延迟高速互联网,尤其覆盖偏远地区,该卫星为星座扩容,提升全球网络覆盖能力。

Basic Information
目录编号:
59496
目录名称:
STARLINK-31728
国际标识:
2024-071N
轨道中心:
EARTH
卫星名称:
星链-31728
卫星全名:
星链-31728 (STARLINK-31728 )
卫星状态:
在轨 (已飞行881 天)
发射日期:
2024-04-13 UTC
国别 :
美国 (US)
星等 :
--
This satellite is enrolled in the Space Conjunction Data Service (SCDS) and the current flight risk assessment level is: No High Risk
Orbit Information
数据来源 国际轨道数据
星历时间: 2026-09-11T15:22:07+0800
10小时前
查看轨道信息
半长轴: 6861.146km
偏心率: 0.0001886
轨道倾角: 43.006°
近地点辐角 279.627°
升交点赤经 11.451°
平近点角 80.436°
近地点: 481.714km
远地点: 484.304km
周期: 94.266分钟
每日圈数: 15.275935
Detailed Information
固有亮度:
5
最大亮度:
1.5
卫星平台:
Starlink v2.0 mini
覆盖范围:
全球
运营商:
太空探索技术公司
运营商所在国:
美国
制造商(研发单位):
太空探索技术公司
制造商所在国:
美国
使用方式:
暂无
Satellite Introduction
星链(Starlink)计划是由太空探索技术公司(SpaceX)提出的一个巨型低轨卫星互联网星座项目,计划在2019年至2024年间在太空搭建由约1.2万颗卫星组成的“星链”网络,其中1584颗将部署在地球上空550千米处的近地轨道,并从2020年开始工作。该卫星仍在工作。
2D Orbit Map
3D Orbit Map
Orbit Altitude Analysis Chart
Orbit Inclination Analysis Chart
Orbit Comprehensive Analysis Chart
View Comprehensive Chart
Conjunction Data List
Event ID Objects TCA Miss Dist (km) Collision Risk Probability Collision Risk Index (CRI) Action
CDM_260914-032405-949606-385721
2026-09-14T
03:24:41+0000
0.174 km
中距离
7.413884E-4 高风险 0.92
CDM_260913-123005-949606-385721
2026-09-13T
12:30:17+0000
0.783 km
远距离
3.931828E-5 中风险 0.67
CDM_260913-140405-949606-385721
2026-09-13T
14:04:26+0000
1.048 km
极远距离
1.474756E-5 中风险 0.58
CDM_260914-045805-949606-385721
2026-09-14T
04:58:50+0000
1.576 km
极远距离
3.74782E-6 低风险 0.46
CDM_260913-013405-949606-729121
2026-09-13T
01:34:54+0000
1.780 km
极远距离
2.588407E-6 低风险 0.43
CDM_260911-053205-949606-660521
2026-09-11T
05:32:14+0000
1.769 km
极远距离
2.344987E-6 低风险 0.42
CDM_260914-015005-949606-385721
2026-09-14T
01:50:32+0000
1.891 km
极远距离
2.219649E-6 低风险 0.42
CDM_260913-105605-949606-385721
2026-09-13T
10:56:08+0000
2.118 km
极远距离
1.681346E-6 低风险 0.4
CDM_260914-084205-949606-731021
2026-09-14T
08:42:23+0000
1.499 km
极远距离
1.502449E-6 低风险 0.39
CDM_260913-172005-949606-392721
2026-09-13T
17:20:52+0000
2.898 km
极远距离
1.272673E-6 低风险 0.37
Miss Distance Evolution Trend with All Objects
Collision Probability Evolution Trend with All Objects